HRC MONOBLOCK CAMERA

Last updated on Sun Dec 14 2025 00:02:12 GMT+0000 (Coordinated Universal Time)

1 66052U 98067XR 25347.29418081 .00058002 00000+0 87488-3 0 9995 2 66052 51.6292 138.7434 0003175 186.7911 173.3037 15.54192892 8924
UTC large
Height (km)
Speed (km/s)
/
Latitude / Longitude
Inclination (degrees)
Orbital Period (minutes)
Azimuth
Elevation
Range (km)
Doppler Factor

Next 0 passes for location: London (51.5072 / 0.1276)

Sorry there are no passes over London.